Theta_e
327 315 310 316 317 315 310 303 297 294 295 290 285 288 292 296 296 298 299 299 299 303 303 312 311 310 305 304 308 314 315 307 305 301 297 308 328 335 336 337 339 339 337 336 335 335 335 342 344 346 347 347 347 347 347 347 347 347 347 347 347 346 345 344 345 345 343 342 342 342 342 342 342 342 342 342 342 341 340 340 341 341 340 340 340 341 340 342 341 341 343 344 345 344 343 343 344
321 312 313 315 314 308 304 300 291 288 286 284 288 288 291 292 298 296 296 297 299 307 310 316 317 318 318 317 317 314 313 319 316 316 324 331 335 334 337 339 339 338 337 335 335 333 334 337 344 346 347 347 347 347 347 347 346 346 347 347 346 345 344 342 344 343 341 341 341 341 338 339 338 339 342 342 339 338 339 341 340 339 340 340 340 340 340 339 339 339 342 344 344 344 343 343 343
319 313 313 310 309 306 302 298 294 283 287 284 283 288 292 294 295 296 296 302 305 310 312 315 314 313 313 313 310 308 304 323 325 326 327 334 330 333 338 339 339 337 336 334 334 332 333 337 342 347 347 347 347 347 346 346 346 346 347 347 346 345 343 342 343 342 340 345 343 342 341 340 340 340 339 339 340 340 339 339 339 340 339 339 340 340 339 339 340 342 342 342 344 343 343 344 344
313 315 311 305 306 300 296 291 287 286 290 282 284 289 294 293 294 295 299 305 308 308 304 307 310 312 313 311 312 318 317 320 326 327 326 330 330 336 338 339 338 337 335 335 333 332 333 338 342 347 347 346 347 347 347 346 347 346 346 346 345 343 343 342 341 339 340 344 342 341 341 341 340 338 340 340 339 339 340 339 340 340 340 340 340 341 340 339 339 341 342 343 343 343 343 343 343
312 316 308 304 302 302 296 291 288 284 288 284 285 287 292 293 297 297 302 301 300 299 302 304 309 314 315 314 313 307 311 321 326 328 326 329 337 338 338 338 337 335 334 334 332 331 334 340 341 345 345 345 346 347 347 347 346 346 345 344 344 342 341 340 340 339 340 341 339 339 340 340 338 338 337 339 340 339 338 337 338 338 338 338 338 339 339 338 339 341 342 342 343 343 342 342 343
310 310 310 306 303 304 296 293 291 287 287 287 289 293 294 297 300 299 300 300 300 300 302 305 308 309 313 316 316 313 319 316 324 326 326 330 336 338 338 337 336 335 334 333 330 332 332 338 340 343 344 343 345 347 346 346 345 344 345 344 343 342 339 338 338 340 342 339 337 341 341 340 340 341 340 340 340 339 339 339 339 339 339 339 340 340 340 339 339 340 341 341 342 343 342 341 341
312 304 302 302 302 300 293 289 285 286 289 291 291 295 298 298 300 298 298 300 303 307 308 311 315 313 311 312 317 321 321 323 325 325 329 334 337 337 338 337 336 334 333 331 331 331 332 339 343 344 345 344 343 345 346 346 346 345 344 343 342 342 340 338 338 340 340 339 338 340 341 341 342 340 338 337 338 339 338 339 340 340 340 339 340 340 340 339 339 340 341 341 341 342 340 340 340
311 304 301 293 292 296 290 288 288 285 292 291 293 299 298 300 298 298 298 299 300 303 310 308 305 307 307 314 311 319 324 325 327 332 335 336 336 336 337 337 335 334 333 332 330 332 341 339 342 342 343 342 344 343 345 345 345 344 344 343 342 342 340 339 339 339 339 338 340 341 341 342 342 339 337 336 336 337 338 339 339 338 338 338 338 339 338 338 340 340 340 341 341 339 338 338 339
307 305 300 296 294 291 285 289 288 289 289 293 297 299 305 300 298 298 297 298 299 302 305 304 306 305 305 312 310 316 321 329 334 335 335 335 335 336 337 336 334 334 334 331 330 331 331 339 340 342 342 344 343 342 344 345 345 344 343 342 342 341 340 339 339 338 338 340 341 342 343 343 342 340 339 337 337 337 337 338 338 338 338 338 338 337 337 338 338 339 340 340 340 337 337 338 339
303 302 295 293 291 292 285 285 288 290 291 295 298 299 300 298 297 297 297 300 302 298 300 301 304 304 309 313 314 317 319 330 334 333 334 335 335 336 336 334 335 334 335 334 331 332 332 340 337 338 340 343 345 345 344 345 345 343 342 341 341 340 338 338 338 337 337 339 341 342 342 341 339 338 336 336 337 336 337 337 338 337 338 338 338 338 337 337 337 338 340 340 338 336 336 336 337
297 297 298 294 287 288 288 285 285 288 295 293 298 299 299 296 296 296 297 298 298 299 303 309 312 311 312 314 311 316 322 330 332 330 333 335 335 335 334 335 335 335 335 334 332 332 332 333 338 336 339 339 342 344 344 344 344 343 342 341 340 339 338 338 337 338 338 337 341 340 339 339 340 339 337 336 336 337 338 338 338 338 338 338 338 337 337 337 337 338 338 339 337 336 335 335 335
297 293 293 285 288 287 285 286 288 290 291 293 298 299 296 297 296 297 297 300 300 303 305 307 309 310 309 309 313 318 325 328 331 332 334 335 335 334 334 334 334 334 336 335 335 334 330 330 332 337 335 335 338 340 341 342 344 343 341 340 340 339 337 337 338 338 337 336 339 341 342 340 339 337 336 336 337 337 336 336 336 336 336 336 337 337 336 336 336 336 338 337 336 335 335 335 334
295 294 290 289 289 289 288 289 290 295 289 292 295 299 295 296 296 297 297 298 298 300 305 303 315 308 305 306 313 319 324 326 330 333 334 335 334 334 334 334 334 336 336 336 336 335 331 329 330 331 331 331 331 333 336 337 341 343 342 340 340 340 339 338 339 340 337 337 339 341 342 342 340 337 337 336 338 337 337 337 337 337 336 336 336 337 337 337 336 336 337 336 335 335 334 334 334
298 295 293 291 288 288 287 287 287 291 289 292 293 296 296 296 296 297 299 298 297 300 300 303 315 313 309 313 320 320 324 325 330 332 334 334 334 334 333 334 334 335 336 337 336 336 336 332 330 330 331 331 330 332 331 336 339 341 341 340 340 340 340 341 340 341 341 341 340 339 340 341 342 341 340 339 338 338 337 337 338 336 335 335 335 335 336 336 336 336 336 335 335 334 333 333 333
303 297 291 290 288 288 288 289 290 288 291 291 296 295 296 298 296 297 300 298 297 299 308 307 313 307 304 313 314 320 324 326 328 331 333 333 333 333 332 334 334 335 335 336 336 336 336 336 334 332 332 333 332 330 326 331 333 336 338 338 339 340 340 339 338 337 337 338 337 335 335 334 334 336 337 337 336 336 334 332 336 336 335 335 335 335 335 336 336 335 335 334 333 333 332 332 332
301 295 292 293 289 288 289 289 286 288 292 292 297 294 295 296 296 298 299 297 298 305 307 310 308 305 305 314 315 324 326 326 327 331 332 332 332 332 332 333 333 333 334 334 334 336 337 336 335 333 332 332 331 329 327 327 331 331 334 336 336 337 336 335 334 332 330 330 330 329 327 327 326 327 328 330 332 335 332 328 332 335 335 334 334 334 335 335 335 335 334 333 334 333 333 331 331
299 296 293 286 290 288 289 290 289 288 289 291 294 295 295 294 297 297 300 300 305 306 309 312 309 313 313 313 311 326 326 325 327 331 331 331 331 330 331 331 331 331 332 332 333 334 335 335 334 333 332 332 332 332 331 331 330 329 329 330 331 333 332 331 330 324 322 321 322 321 322 321 321 323 324 324 324 325 325 326 331 336 335 335 335 334 334 334 334 334 334 333 333 331 327 325 323
301 294 289 289 287 289 291 291 291 290 293 294 294 294 295 293 296 300 304 308 305 306 308 308 312 313 313 315 318 326 325 325 328 330 330 329 330 328 328 329 329 327 329 330 332 333 333 334 334 334 332 332 332 332 332 331 330 328 327 326 326 328 326 324 322 321 326 318 319 320 319 321 320 318 321 329 322 322 323 325 329 334 335 334 335 334 334 333 334 334 333 333 333 330 319 313 314
294 290 289 290 289 292 294 292 294 293 294 296 296 292 297 297 297 298 300 301 305 305 308 307 309 313 316 318 323 323 324 325 328 330 329 328 328 328 328 328 328 328 328 330 331 332 333 333 334 333 333 333 332 332 331 330 330 327 325 326 328 324 326 323 321 321 317 318 316 317 318 318 317 318 319 321 321 322 323 324 329 331 333 331 334 334 334 334 334 334 333 333 332 323 314 312 313
296 293 289 287 294 293 293 292 294 294 295 295 295 294 294 296 297 296 299 300 299 301 305 305 307 309 312 317 321 321 323 324 327 329 329 328 329 329 328 328 328 328 328 330 330 332 333 332 333 333 333 333 332 332 331 330 329 324 322 323 326 325 323 323 320 319 318 317 318 318 318 316 316 316 325 327 326 319 320 324 327 327 328 328 329 329 331 333 332 332 331 328 321 316 314 312 313
294 295 289 291 293 294 294 291 293 293 295 296 295 293 294 294 296 297 296 299 297 297 305 307 308 311 314 319 320 320 321 323 325 328 328 329 330 330 330 329 329 329 330 331 330 331 332 332 332 332 334 333 333 332 331 330 330 325 322 323 323 324 324 322 322 321 319 318 318 320 317 317 316 315 316 316 317 317 318 318 318 318 318 318 321 321 319 318 318 316 315 314 313 313 314 315 314
296 293 293 294 293 294 294 291 290 293 293 295 292 295 295 295 296 295 300 296 295 299 302 306 312 316 317 318 320 320 320 321 324 326 328 328 329 329 331 331 332 333 333 331 330 331 333 333 333 332 333 333 334 333 331 331 330 328 325 323 323 322 322 323 322 323 322 321 319 319 317 318 317 317 315 315 315 316 317 317 315 316 316 318 320 321 319 317 315 314 312 311 311 310 311 312 311
292 291 292 291 293 295 294 293 293 294 294 295 293 296 295 296 295 293 299 297 295 295 299 307 315 319 321 322 321 320 319 320 322 324 327 327 328 329 330 331 331 330 331 332 333 333 334 333 332 330 330 332 333 334 333 331 330 329 327 324 324 323 322 323 323 322 323 322 321 319 320 317 317 317 315 313 315 313 317 315 316 315 317 315 318 319 318 316 314 314 313 309 309 310 311 309 310
293 291 290 294 293 295 293 293 292 294 296 296 294 294 296 293 294 292 296 295 293 293 293 310 316 318 320 320 320 321 320 320 321 324 326 327 327 328 329 329 330 331 331 332 333 334 334 334 332 329 330 331 332 334 332 330 331 330 327 325 325 323 322 323 323 324 323 323 322 321 320 319 319 317 317 315 315 312 316 317 313 314 314 313 318 317 317 316 315 313 311 310 309 308 309 309 310
293 291 292 294 294 292 292 290 292 293 294 291 293 295 295 294 294 291 294 297 293 298 304 316 317 318 319 320 320 320 320 320 320 321 322 324 325 325 323 326 326 327 329 331 332 334 335 335 333 329 330 330 332 334 331 331 331 330 327 327 327 324 323 323 323 323 323 323 321 321 319 319 317 319 318 317 314 316 315 315 314 316 313 315 314 315 313 316 314 312 311 311 309 310 308 311 308
294 294 292 292 293 292 291 293 291 293 294 293 294 293 292 292 295 292 295 296 293 300 313 316 317 317 317 318 319 319 320 320 321 320 321 321 321 321 321 322 324 324 328 329 329 332 334 335 333 330 331 331 332 333 332 329 329 328 327 326 327 324 324 324 322 322 323 323 322 321 319 320 320 319 318 316 316 316 316 314 314 315 315 314 313 316 315 313 313 311 310 312 312 311 311 312 308
294 293 292 292 293 293 292 293 292 291 294 292 295 292 293 292 293 291 293 291 302 308 313 314 316 316 317 318 318 319 319 320 320 322 320 319 319 321 322 321 322 324 325 326 327 329 331 333 333 331 331 330 332 332 332 329 327 327 326 326 325 324 325 324 322 323 322 322 323 322 320 319 320 319 318 316 315 315 316 317 316 313 314 314 314 316 312 315 313 314 315 313 313 312 312 310 309
295 292 292 291 290 291 292 293 292 293 295 291 293 293 292 292 293 289 292 294 305 309 313 314 314 315 317 317 317 318 319 320 321 320 320 319 320 321 322 322 322 323 324 325 327 327 328 331 333 332 332 332 331 332 331 329 327 328 327 326 326 325 324 324 322 323 322 323 323 322 321 319 318 318 317 316 316 314 316 316 315 314 315 314 314 316 314 313 314 314 312 311 310 310 311 310 309
295 294 290 288 291 292 293 293 293 293 294 292 290 294 291 292 291 293 290 300 304 310 312 313 313 314 316 316 317 317 318 319 318 320 321 322 323 323 323 324 323 323 325 326 327 326 327 329 332 332 333 331 331 331 331 330 329 328 327 327 327 326 324 324 322 322 323 323 323 323 322 321 318 319 317 317 316 315 314 314 315 315 316 315 315 314 313 311 310 310 313 311 312 312 314 316 312
294 293 290 289 289 289 292 292 291 293 294 291 293 286 287 291 295 293 292 303 304 306 309 312 312 312 314 315 316 317 317 314 317 320 322 322 323 323 323 324 324 325 325 325 326 326 328 329 331 332 332 332 331 332 331 330 329 328 327 328 327 326 325 324 323 323 323 323 323 323 322 321 319 318 318 315 316 316 314 314 313 315 314 313 313 311 312 312 313 313 316 314 315 315 315 316 313
291 290 291 286 286 284 290 293 291 293 292 292 294 288 286 290 294 293 293 304 304 304 307 310 310 310 312 313 315 316 316 317 318 320 321 322 323 323 323 324 324 324 324 324 325 327 327 328 330 332 330 331 330 331 330 330 329 329 327 327 327 326 326 325 325 324 323 323 323 323 323 322 320 320 318 317 315 316 315 314 312 315 313 312 312 313 316 315 316 317 317 315 315 314 314 314 313
288 289 284 283 285 284 288 290 291 293 292 292 293 287 288 291 292 292 292 298 302 301 303 307 308 309 310 311 313 314 315 317 318 318 320 321 322 323 323 323 324 323 324 324 325 326 326 327 328 330 329 330 330 331 330 330 329 329 328 325 327 326 326 325 325 324 324 322 323 323 322 322 321 320 319 320 321 319 318 317 317 316 316 318 318 318 317 318 317 317 316 316 315 316 314 314 313
286 287 282 282 283 286 288 292 290 292 291 293 291 287 286 292 290 288 289 298 300 300 301 304 306 307 308 310 311 313 313 313 314 317 319 320 322 322 323 323 323 323 324 324 324 324 325 326 327 329 329 329 330 330 330 329 328 328 328 327 327 326 326 325 325 324 323 323 322 323 322 322 322 322 322 323 324 322 321 321 321 321 321 321 320 319 317 318 317 316 316 315 314 316 314 313 313
285 286 284 282 285 285 286 286 290 291 291 290 291 289 286 288 288 288 292 294 296 297 298 301 304 305 306 307 309 310 311 312 313 316 318 319 321 322 323 321 323 323 323 323 324 325 325 326 326 328 329 329 330 330 329 329 328 328 327 328 326 326 326 326 325 324 324 323 323 322 322 324 325 326 326 325 326 325 325 324 324 322 321 321 320 319 318 318 317 316 314 312 314 314 314 314 312
282 285 285 285 285 285 287 288 290 292 291 289 290 288 291 292 292 289 292 292 293 296 297 298 300 301 301 301 304 307 309 310 312 315 317 319 320 322 323 323 323 322 324 323 324 324 325 325 325 325 327 328 329 329 328 328 327 327 327 327 326 326 326 326 326 325 324 324 323 324 325 327 327 328 327 326 326 323 322 321 323 324 322 319 319 319 319 318 317 316 315 317 315 315 313 312 311
286 286 286 284 286 286 286 288 289 291 290 288 287 290 292 293 293 291 291 290 291 293 291 291 292 295 296 297 298 301 304 307 311 312 314 317 319 321 322 323 323 323 323 323 322 324 324 324 325 325 326 328 328 328 327 327 326 325 325 324 326 326 327 326 327 328 327 326 324 324 325 327 327 327 328 328 327 325 324 324 324 321 320 319 320 320 318 315 315 314 313 313 313 310 308 310 311
289 288 288 285 287 286 288 287 290 290 290 288 288 290 291 292 293 291 289 289 290 290 291 292 291 292 294 295 296 298 299 303 306 307 309 313 317 320 321 322 322 321 322 322 322 323 324 325 324 324 325 326 327 326 326 327 326 326 326 326 327 327 327 328 329 330 330 329 328 327 326 326 325 324 322 323 326 324 325 324 323 321 320 317 317 319 319 316 316 317 312 310 312 308 309 310 311
289 288 287 286 286 285 286 290 290 288 290 288 287 287 289 290 291 289 288 289 291 292 292 292 293 292 293 294 295 296 298 298 300 302 305 307 313 316 318 320 319 319 320 321 322 323 324 324 324 325 324 325 327 328 327 326 328 329 328 328 326 326 326 326 329 330 330 330 329 328 328 327 326 325 324 323 323 324 324 323 323 323 321 319 318 318 314 313 315 311 313 313 310 311 308 309 312
288 287 287 285 285 287 287 287 289 288 289 287 285 287 290 291 292 290 288 290 292 293 294 295 294 293 292 292 293 295 295 296 297 300 301 306 310 313 316 318 320 321 321 321 323 323 323 324 325 325 325 325 326 327 327 327 327 327 328 325 327 322 320 325 325 325 328 329 329 330 329 328 326 325 324 323 325 325 325 324 323 322 321 319 320 319 316 315 314 314 314 316 315 308 311 311 311
287 286 283 284 286 286 285 286 288 288 286 286 285 285 288 290 288 288 289 291 292 292 292 294 294 294 294 294 294 294 295 296 296 298 300 302 306 311 313 315 318 319 320 320 321 322 323 323 324 325 325 325 326 326 325 327 326 326 324 321 323 325 320 316 322 322 325 326 327 328 329 328 327 325 325 325 325 326 325 324 324 323 323 320 321 320 319 318 317 316 314 312 311 313 308 310 312
288 287 284 284 285 286 287 285 287 286 287 284 285 286 286 287 289 289 290 290 291 291 290 291 292 293 294 293 293 294 294 295 296 297 297 297 301 308 312 315 316 317 319 320 321 322 324 323 324 325 325 324 325 325 324 324 321 319 318 317 317 319 316 317 318 322 324 323 324 324 326 325 325 325 325 326 324 326 326 325 321 321 321 319 320 322 320 320 320 320 315 312 314 316 315 312 310
286 286 287 287 287 288 288 287 287 285 285 284 287 281 280 280 283 287 292 287 289 290 291 292 293 293 291 292 293 294 294 294 296 297 298 298 300 304 309 311 313 316 318 320 322 323 323 324 323 323 324 324 325 324 324 323 323 324 321 323 322 322 323 321 321 323 321 322 324 321 321 321 323 324 325 324 324 323 325 324 322 321 321 322 322 322 321 320 319 318 317 317 316 315 315 313 311
284 286 289 289 288 289 288 286 286 281 279 283 284 283 275 281 283 285 284 282 287 288 287 291 293 294 292 293 294 294 294 294 293 294 294 295 296 299 305 309 312 315 317 319 319 320 322 323 322 322 323 323 323 323 323 321 323 324 324 325 325 323 322 321 316 315 319 317 317 319 320 316 320 324 324 324 324 324 324 322 323 323 321 320 317 320 319 318 317 317 316 316 316 314 313 312 312
283 288 288 290 289 288 287 287 287 280 281 285 282 281 278 280 287 284 280 283 285 286 287 288 290 292 293 294 294 294 294 293 294 294 294 295 296 298 302 308 311 314 316 314 316 318 319 320 321 321 322 320 322 322 322 323 324 323 322 322 321 322 321 317 311 312 310 310 315 314 314 315 317 320 323 322 323 323 322 320 321 321 320 320 316 315 317 317 316 315 314 315 314 313 312 312 311
286 290 291 289 290 289 288 288 285 283 284 280 280 284 281 276 281 283 282 284 286 287 290 290 290 291 292 294 294 294 294 293 293 294 294 294 296 297 301 305 310 311 310 313 315 317 318 319 318 319 320 320 320 320 321 322 323 323 323 322 319 315 314 312 308 305 310 308 312 308 312 312 315 316 318 319 319 319 317 320 321 320 318 318 316 317 317 317 316 315 313 312 314 314 313 312 311
289 291 291 289 288 287 288 284 285 284 280 278 279 280 277 278 279 281 280 283 284 286 288 291 291 292 291 292 292 292 291 291 292 293 294 295 295 296 299 301 303 308 307 307 307 307 311 314 315 316 319 319 319 319 320 321 321 320 321 320 320 314 310 305 308 309 307 308 311 309 311 313 314 315 315 316 318 318 319 319 319 318 318 317 315 317 315 314 314 312 313 313 313 312 312 311 310
293 292 290 288 285 284 282 282 281 281 275 278 279 279 280 277 280 285 285 284 285 289 288 288 288 287 287 289 290 291 292 292 293 293 294 294 294 294 295 301 302 299 298 300 303 306 309 312 314 316 318 318 317 318 318 319 320 319 321 319 318 314 311 311 309 305 307 308 311 309 312 311 311 311 310 309 310 313 314 314 316 315 316 312 313 313 312 311 310 312 312 311 310 310 310 310 309
293 288 285 287 285 283 282 280 282 277 273 275 276 278 278 276 277 282 285 283 281 286 288 290 289 289 288 287 288 289 290 291 292 293 294 294 296 295 295 297 298 298 296 298 299 300 305 309 312 314 313 315 315 316 316 318 318 318 318 317 317 315 313 313 313 310 309 311 311 311 307 307 305 305 305 305 304 308 310 310 310 310 310 311 311 311 311 311 312 311 310 309 308 308 308 307 307
290 287 287 284 278 278 276 278 276 275 274 279 277 278 279 280 281 284 283 283 285 283 287 289 289 289 288 288 289 290 290 290 293 293 293 294 296 297 296 296 294 296 300 299 300 300 301 304 308 312 313 311 313 314 315 315 316 316 317 316 316 314 314 314 313 311 309 310 309 309 306 306 300 302 299 303 304 306 307 308 307 306 304 301 301 304 305 307 306 306 307 307 306 306 306 305 304
287 287 285 283 276 275 274 271 269 270 276 277 278 279 278 278 281 289 290 293 292 288 286 287 288 289 290 289 289 290 290 290 292 292 292 293 294 294 294 295 297 296 296 296 296 297 298 301 304 309 312 309 309 310 313 314 314 314 315 315 315 313 313 313 313 312 308 310 309 309 308 306 304 302 300 301 301 302 303 303 302 300 299 299 300 302 304 305 303 301 301 302 300 300 302 301 300
288 287 289 284 279 274 272 268 273 274 277 275 277 276 273 277 282 282 288 291 289 284 285 285 285 285 286 286 288 288 288 289 288 290 293 293 293 291 293 293 294 294 294 295 295 295 295 298 301 304 307 304 307 310 311 313 313 312 313 314 314 314 314 312 312 310 309 308 308 308 304 302 302 298 301 298 298 300 299 299 298 298 298 298 298 300 302 302 301 300 299 297 297 297 296 296 296
286 285 288 284 285 283 280 275 274 271 273 275 275 276 277 281 282 286 287 286 287 287 286 285 288 288 288 291 292 292 291 290 289 290 291 291 290 290 290 291 292 293 294 294 295 294 295 296 296 299 304 304 305 306 309 312 311 310 311 312 312 312 311 311 308 308 308 309 308 307 303 301 299 298 296 297 295 297 297 297 296 296 296 296 296 297 297 297 297 297 296 296 295 295 294 292 292
286 285 285 286 287 285 279 276 277 277 275 273 274 277 280 280 286 290 284 283 288 286 286 285 288 287 288 291 291 291 292 290 289 291 289 290 289 289 289 290 290 290 292 294 294 294 295 296 297 301 302 300 303 305 308 308 308 309 309 310 310 309 310 309 309 307 306 305 305 303 302 298 297 297 296 295 295 295 295 295 295 294 294 293 294 293 293 293 294 293 293 291 291 292 292 291 291
285 281 285 287 289 287 284 278 271 270 272 274 272 277 277 276 279 283 284 286 288 287 287 286 285 284 288 292 292 292 293 292 290 289 288 289 289 290 290 290 289 291 293 292 294 295 296 296 298 302 303 304 303 304 305 306 307 307 307 308 309 310 309 308 307 305 303 302 301 299 298 297 295 295 295 294 294 294 293 292 293 292 291 291 291 290 290 290 290 288 289 289 289 288 286 285 286
288 286 290 288 281 280 280 278 271 270 268 266 269 274 275 276 281 281 282 284 290 291 288 286 288 288 290 291 291 291 291 290 292 291 290 290 290 291 290 291 291 289 289 288 294 295 295 295 297 303 304 306 305 305 305 305 307 307 307 307 307 306 306 305 304 303 302 301 299 297 296 295 293 293 293 293 292 291 290 288 289 288 289 288 288 287 287 287 286 286 285 286 285 284 283 284 284
288 288 286 287 285 282 278 279 275 275 270 269 270 272 276 279 279 282 288 287 287 288 285 287 289 290 291 291 291 292 292 293 293 292 291 290 289 288 289 290 292 292 292 292 296 298 299 300 301 303 304 305 305 304 304 305 305 305 305 305 305 305 304 303 302 302 302 299 297 296 294 294 293 292 292 291 290 289 288 288 286 287 287 286 286 285 285 285 286 285 284 285 284 284 284 283 284
284 285 282 285 283 284 281 280 276 276 269 266 268 269 273 279 282 285 289 290 290 288 289 287 288 289 289 290 291 291 291 292 292 292 291 290 289 289 289 288 289 288 290 293 297 300 300 302 304 304 305 305 305 304 304 303 303 304 304 303 302 302 301 301 301 300 299 297 296 294 293 292 290 289 288 289 288 288 288 287 287 287 287 286 287 286 283 283 284 284 283 283 282 283 285 282 282
287 286 284 286 281 279 279 279 279 272 274 271 265 273 274 282 283 289 290 291 290 287 288 289 289 289 288 289 289 290 291 290 290 289 288 289 287 287 288 288 288 289 291 294 297 299 300 302 305 306 306 306 305 304 303 303 303 303 302 301 300 299 299 299 298 298 296 294 292 291 289 289 290 287 288 288 288 287 286 287 287 287 285 285 285 284 283 282 283 283 283 283 282 281 284 282 282
Wind_Speed
4 1 1 3 2 3 2 6 1 2 2 1 1 1 2 0 1 1 2 2 1 2 2 2 4 3 1 3 7 6 0 5 4 8 5 1 1 4 6 8 7 6 6 3 3 3 3 5 6 7 9 9 10 10 11 12 13 13 12 13 12 12 12 12 14 14 14 14 14 14 15 15 15 15 16 16 15 16 15 15 15 15 15 15 15 14 14 15 16 16 17 17 16 16 16 15 16
3 1 4 1 1 2 1 1 3 3 5 3 2 1 1 3 1 3 4 2 2 3 1 8 9 10 12 12 8 3 3 3 2 1 1 1 4 3 5 9 7 9 5 4 3 3 3 3 4 7 9 11 11 12 12 12 12 13 12 13 13 12 11 11 14 13 13 13 14 14 13 13 12 14 15 15 14 14 15 15 15 15 15 16 15 15 15 15 16 16 16 17 16 15 14 15 15
2 3 2 2 3 4 1 4 2 1 1 1 3 4 1 1 4 3 3 4 6 6 4 7 8 4 2 1 5 1 1 2 6 2 3 5 7 4 6 6 7 7 6 4 4 3 3 3 3 9 11 12 12 12 12 13 13 12 12 12 13 12 11 11 12 13 12 15 13 14 14 14 13 14 14 15 15 14 14 14 14 15 15 15 15 15 15 14 16 16 16 16 16 16 16 16 16
1 5 2 2 1 4 1 3 4 3 1 3 1 2 1 5 4 4 2 5 7 5 2 0 4 2 4 8 2 1 3 2 2 4 5 6 1 6 7 8 7 6 5 4 3 3 2 3 4 9 10 12 13 12 11 11 12 13 12 12 12 11 11 11 12 11 12 14 13 13 14 14 15 13 14 14 14 13 14 14 15 15 15 15 15 16 15 14 15 15 16 16 16 15 15 16 16
2 2 2 4 3 1 1 0 3 3 2 4 3 3 3 4 5 4 3 1 2 2 1 2 4 3 1 5 1 1 1 3 3 2 2 1 5 8 8 7 7 6 5 3 3 2 2 3 4 9 11 11 13 12 12 12 12 13 11 11 11 11 11 11 11 11 13 13 13 12 13 14 13 13 13 14 14 14 13 13 14 13 13 15 15 14 14 14 14 15 15 16 16 16 16 15 15
5 2 3 2 0 2 4 1 1 1 6 5 1 3 4 6 7 6 2 1 1 0 1 3 4 3 3 2 1 3 2 2 2 2 2 3 8 9 8 7 7 6 4 3 2 2 2 4 3 7 10 10 11 12 11 11 12 12 11 11 11 11 11 10 8 12 14 12 11 12 12 13 13 13 13 12 12 13 13 13 14 14 14 14 14 14 14 13 14 15 15 15 16 17 16 15 15
1 3 5 4 2 4 3 1 4 4 5 6 2 3 8 5 4 5 3 2 0 3 2 3 5 5 5 1 2 1 2 2 2 2 3 6 9 8 7 7 7 6 4 3 2 3 3 4 5 8 8 8 10 11 11 11 11 12 10 11 11 11 10 9 7 11 11 11 11 12 13 13 13 13 11 12 13 13 13 13 13 13 13 13 13 13 13 12 13 15 14 15 16 17 16 14 14
2 2 2 2 1 2 1 0 4 5 1 5 2 8 6 7 5 4 6 3 2 1 1 3 1 5 1 3 2 2 4 0 4 7 9 8 8 8 7 7 9 7 5 3 3 2 4 7 7 8 8 8 7 9 11 11 10 11 10 11 11 11 10 8 8 10 10 11 12 12 11 12 12 12 11 10 11 12 12 12 12 12 12 12 12 12 12 12 13 13 14 14 15 16 15 14 14
5 6 1 4 0 3 2 3 3 3 5 1 2 2 2 3 3 4 3 0 1 2 4 1 0 5 2 2 1 3 2 2 8 11 9 9 9 7 6 7 9 8 6 4 3 3 3 6 7 7 5 4 7 9 10 12 10 11 11 10 10 11 10 9 9 9 10 11 12 11 11 12 12 12 11 11 11 11 11 11 11 11 11 12 12 12 11 11 12 13 13 14 14 15 15 14 14
2 2 1 2 3 1 3 5 1 1 2 1 4 5 5 4 4 0 4 3 4 5 0 2 1 4 2 5 1 2 1 2 10 9 8 9 7 6 6 6 7 11 8 5 3 3 3 5 7 6 5 6 7 7 8 10 11 10 10 10 10 10 10 9 9 9 8 11 11 11 11 12 12 12 11 11 11 11 11 10 11 11 11 11 11 11 11 11 10 11 12 12 13 14 14 15 14
1 5 2 3 2 0 2 2 3 4 0 2 1 1 1 2 3 3 1 4 1 3 1 2 6 5 3 1 1 3 1 4 12 10 8 8 7 7 6 6 7 9 10 6 4 3 3 4 6 6 6 6 6 7 8 10 10 12 12 11 11 10 10 9 9 10 9 9 10 10 10 11 11 12 11 10 11 10 10 11 11 11 11 11 11 11 10 10 10 11 11 11 12 13 13 14 14
1 1 2 3 2 4 3 2 1 2 3 1 2 0 1 3 2 3 3 8 1 4 3 3 4 5 4 2 0 1 3 4 9 10 9 8 7 6 6 5 6 6 8 7 5 4 3 3 3 5 6 7 6 6 6 8 10 10 11 11 10 10 10 8 9 9 10 8 10 11 12 12 11 12 11 10 9 10 10 10 10 9 10 10 10 10 10 10 9 9 10 10 11 11 12 12 13
3 1 6 3 1 1 1 0 1 1 2 2 4 1 3 3 4 5 3 3 2 5 0 4 11 4 3 2 3 1 5 5 5 11 10 8 7 6 6 6 6 7 7 6 7 5 3 3 3 3 4 7 7 8 8 8 8 8 10 10 8 8 7 7 10 9 9 8 9 9 11 11 10 11 10 9 7 9 10 8 8 9 9 10 10 10 9 10 9 9 9 9 9 10 10 11 11
2 4 5 1 1 2 3 1 1 2 2 2 2 1 4 3 3 5 8 6 2 4 2 4 6 7 2 1 1 4 7 5 6 8 9 8 7 8 8 6 7 9 7 7 8 6 5 3 3 3 4 4 4 5 7 7 8 8 8 8 8 7 6 7 10 9 9 9 9 8 9 9 10 10 9 8 9 9 8 7 7 8 8 9 9 9 9 9 8 7 7 7 8 8 9 9 9
1 2 4 3 1 1 2 3 7 5 5 3 3 5 1 2 2 4 6 8 2 0 0 1 3 3 5 8 4 9 9 7 7 7 9 8 8 8 7 7 7 8 8 7 7 7 6 4 4 4 5 5 5 3 3 5 8 8 7 7 7 7 7 8 8 8 8 8 8 8 9 9 9 9 9 10 9 8 7 6 5 5 8 8 8 8 8 8 7 6 6 6 7 7 7 8 8
3 3 3 2 1 1 2 1 1 3 5 4 1 5 4 2 1 4 2 2 2 2 1 2 0 0 3 11 7 13 10 9 7 8 9 10 8 7 7 7 8 8 7 7 7 6 6 6 5 4 4 5 3 3 4 4 6 8 7 7 7 8 8 8 8 8 8 9 9 9 9 7 7 6 9 7 8 7 6 5 5 4 7 8 8 7 7 6 5 5 4 5 5 6 7 7 7
1 3 1 3 3 2 2 3 6 4 3 4 1 5 5 2 0 0 1 1 9 2 1 0 1 1 5 4 3 11 8 8 8 10 9 8 8 6 6 6 6 7 6 6 6 7 7 7 7 4 4 5 5 4 4 3 4 7 6 7 8 8 8 8 8 8 8 8 8 8 7 5 4 4 5 4 6 4 5 5 4 3 5 6 6 6 5 5 5 4 3 3 4 6 6 6 7
1 1 4 1 3 2 5 5 8 2 5 5 5 6 7 4 1 1 3 6 3 2 2 4 2 1 2 2 1 11 9 12 11 13 10 8 8 8 8 6 6 7 7 7 7 7 7 7 8 6 4 5 5 4 3 3 3 3 4 3 4 5 6 6 6 4 5 4 6 5 4 4 4 3 4 5 4 3 4 5 5 5 5 4 5 5 5 4 3 2 1 2 3 5 5 4 4
1 2 2 6 4 6 6 4 6 3 5 7 6 4 7 8 8 3 4 1 1 3 1 3 1 4 4 3 8 12 11 11 12 13 13 12 11 12 9 7 8 6 7 6 7 8 6 5 7 8 6 5 6 4 4 3 4 2 3 4 4 4 4 4 4 4 4 4 3 3 4 3 3 3 3 3 3 5 4 6 5 5 5 4 4 5 4 3 2 1 1 3 4 5 3 3 3
2 2 3 4 7 4 5 4 5 4 3 6 6 5 3 7 5 2 3 6 2 7 5 1 2 1 3 5 8 9 10 11 12 13 14 11 10 10 10 10 10 10 9 8 7 6 7 7 8 7 8 7 5 4 3 3 3 2 2 3 3 3 3 3 3 3 3 3 3 3 3 3 3 2 3 4 4 3 3 4 4 5 4 3 4 3 3 2 3 4 5 5 4 3 3 3 4
2 1 3 3 2 1 3 5 6 5 6 6 6 2 4 4 4 5 5 6 4 5 6 9 10 8 8 10 10 9 10 11 11 12 12 13 12 11 11 12 12 10 8 6 5 8 9 8 7 8 8 7 6 5 4 4 4 2 2 2 3 3 3 3 3 3 3 3 3 3 3 3 2 2 2 2 3 3 2 2 2 2 2 2 3 2 0 1 2 1 2 2 2 3 4 5 5
1 5 3 3 1 1 6 4 5 4 6 5 3 10 7 3 1 4 12 10 8 10 10 9 9 13 14 13 11 10 11 12 12 12 14 14 14 12 9 6 3 4 5 7 8 7 8 8 8 7 8 8 7 6 6 5 5 4 4 4 3 3 3 4 3 4 3 3 3 3 2 3 3 3 2 2 2 3 3 3 2 2 1 2 1 1 0 1 1 1 1 1 2 2 3 3 3
2 4 3 4 3 3 1 2 2 6 5 7 8 6 5 6 2 4 11 11 5 4 4 8 7 15 17 17 14 12 12 13 13 14 14 14 13 11 10 8 8 8 7 8 7 7 7 8 7 6 7 7 8 6 6 6 5 5 5 5 5 5 3 4 5 4 4 3 3 3 4 2 3 3 3 2 3 2 3 3 3 2 2 2 1 1 1 1 1 1 1 2 2 2 3 3 4
3 5 4 8 2 5 3 3 3 2 11 10 2 2 7 5 6 2 7 6 3 3 2 6 4 5 9 11 14 17 17 16 16 15 15 16 15 14 12 11 8 6 7 8 7 7 8 9 8 6 7 8 7 8 8 7 6 6 6 5 5 5 5 5 5 5 4 4 4 4 4 4 5 4 4 4 4 2 4 3 2 2 2 2 2 1 2 1 1 1 1 3 2 2 3 3 4
1 3 3 5 1 4 2 2 1 1 1 1 5 7 7 6 5 5 8 9 3 2 4 7 7 8 9 12 14 13 14 12 11 11 8 7 8 7 6 7 6 7 9 8 8 8 8 8 8 8 7 8 7 7 7 6 6 5 5 5 6 5 5 6 5 4 5 4 4 4 4 4 4 5 5 5 3 4 3 3 3 4 3 3 2 2 2 3 3 2 2 3 3 3 3 4 3
1 3 5 7 7 5 2 2 1 2 0 3 5 4 1 0 0 3 9 7 2 2 5 8 9 10 11 11 13 12 12 15 13 11 13 9 7 8 8 8 7 8 10 9 8 9 8 8 9 10 9 8 8 7 6 6 6 6 6 6 6 5 6 6 4 5 5 5 5 4 5 5 6 6 5 4 5 5 4 3 3 3 4 2 2 3 3 2 3 3 3 4 3 4 4 5 3
1 8 5 8 9 4 2 1 1 0 1 2 6 3 1 2 1 6 3 4 5 6 7 6 11 13 13 11 11 10 12 14 16 13 7 7 9 11 11 9 9 9 8 9 9 8 8 9 9 9 8 7 6 8 7 7 6 7 6 6 5 6 6 5 5 5 5 5 5 5 5 5 5 5 5 5 5 4 4 4 4 3 3 3 3 5 2 4 3 4 5 5 4 4 6 3 2
7 5 9 5 4 3 3 0 1 0 0 2 3 1 1 2 1 6 4 4 6 10 8 9 9 12 12 11 11 10 10 11 8 8 15 13 13 12 12 11 10 9 10 10 8 7 8 10 9 9 9 8 8 8 7 7 7 7 6 6 6 6 5 5 5 5 5 5 4 5 5 5 4 5 4 4 5 4 4 5 4 3 5 4 4 5 4 4 4 4 3 3 3 2 4 3 1
6 3 5 7 3 3 2 3 1 0 1 4 2 1 1 1 6 5 1 4 5 9 10 10 10 9 10 10 9 8 12 9 7 9 14 15 12 11 14 11 11 11 8 10 10 8 10 10 10 10 9 8 10 10 8 8 7 7 6 7 6 6 5 5 5 6 6 5 5 5 5 5 5 5 5 5 5 5 4 4 4 4 5 4 4 4 3 2 2 3 4 2 2 2 3 5 2
4 0 3 3 2 4 5 1 1 1 1 5 4 4 7 9 14 2 1 7 6 6 7 9 8 7 8 8 9 10 7 5 8 13 12 11 10 11 13 12 12 11 9 7 8 11 8 7 8 8 9 10 11 9 8 7 7 7 6 6 6 6 6 6 6 5 6 5 5 5 5 5 5 5 4 4 4 4 4 4 4 4 5 3 3 2 3 4 4 2 5 2 4 3 4 5 4
2 3 0 1 1 4 3 1 2 4 1 4 1 6 7 8 11 4 3 5 11 9 8 9 8 7 7 8 9 10 10 9 13 13 11 10 9 9 11 9 11 10 7 8 12 11 9 9 8 7 9 10 10 10 9 8 7 7 7 6 6 6 6 6 6 5 5 6 5 5 5 5 5 5 4 5 4 4 4 4 3 5 3 2 2 3 3 2 3 4 1 2 3 4 4 4 4
2 1 4 2 5 5 5 1 5 8 1 0 4 5 8 7 7 1 4 5 5 9 8 8 8 8 8 7 9 9 10 9 10 9 9 10 9 9 10 12 10 10 11 11 10 8 10 9 9 9 9 11 11 11 9 8 7 7 7 6 6 6 6 6 6 6 6 5 5 5 5 5 5 4 4 3 4 3 4 4 5 3 3 3 3 2 2 4 4 4 3 2 4 6 5 5 4
3 2 2 1 2 4 4 1 2 1 2 1 5 6 2 8 4 4 3 7 7 7 7 7 9 10 9 9 9 9 8 8 9 11 11 11 10 9 9 9 10 12 10 9 10 9 10 10 11 12 12 12 11 10 9 8 7 7 7 7 7 7 7 7 6 6 5 5 5 5 5 5 4 4 4 3 4 3 3 3 3 3 2 3 3 3 4 4 3 3 4 4 3 5 3 4 6
5 1 3 3 4 2 3 4 2 1 1 4 2 3 6 4 2 4 0 5 6 7 8 8 9 9 10 8 8 9 9 10 13 13 15 12 10 10 9 9 10 9 9 9 9 11 11 10 10 11 10 11 11 11 10 9 8 7 7 7 6 7 7 7 6 5 6 5 5 5 4 5 5 5 5 4 4 4 4 4 3 2 2 2 2 2 4 1 2 3 4 3 4 3 5 6 8
3 2 1 2 1 2 3 3 2 4 1 4 3 5 10 11 6 3 0 2 4 10 9 8 9 8 8 7 8 9 10 11 15 13 13 13 12 11 10 9 9 8 8 9 8 9 7 8 8 9 10 10 10 9 8 7 6 6 6 6 6 7 6 6 6 6 6 4 5 5 5 5 5 5 6 5 4 4 3 3 4 4 3 2 2 2 3 2 3 3 5 5 3 5 6 6 5
4 3 2 3 4 3 3 5 2 5 5 5 5 9 11 14 12 4 1 3 6 8 4 5 6 6 6 7 8 8 10 14 14 9 8 9 10 10 10 9 8 8 8 8 9 8 9 8 7 8 9 9 7 7 7 6 5 7 7 4 6 6 6 6 6 6 6 6 5 5 5 5 5 5 6 6 7 6 6 6 6 5 3 3 4 3 4 4 5 4 5 5 6 4 4 5 4
1 1 1 3 3 4 2 2 1 1 1 7 7 7 9 11 11 5 1 0 3 5 9 9 6 7 8 8 9 11 11 16 6 5 6 8 10 10 10 9 9 8 8 8 9 10 11 11 9 12 9 8 8 8 7 8 8 6 6 9 10 6 7 6 6 6 6 5 5 5 5 6 5 4 4 4 6 6 6 5 5 3 3 4 4 6 5 4 4 4 3 2 4 3 3 3 3
5 5 2 3 3 3 2 1 2 3 5 3 2 5 10 12 11 6 1 1 7 10 11 9 10 9 8 10 12 11 14 5 3 5 6 6 8 9 9 9 8 10 10 9 12 12 11 10 11 11 8 9 10 10 10 9 9 10 8 8 6 6 5 7 7 6 6 5 5 5 6 5 5 5 5 4 4 3 4 4 3 6 3 5 4 3 4 4 4 4 2 3 3 4 3 1 2
5 6 5 4 6 4 6 2 2 1 3 8 0 4 10 12 11 5 3 6 6 7 9 12 10 9 9 9 10 10 7 11 6 8 5 7 9 9 9 10 11 13 11 12 12 11 11 11 11 10 9 10 10 10 9 10 8 7 8 5 8 4 4 5 5 4 4 5 5 5 5 5 5 4 5 5 5 5 5 4 5 4 5 3 3 4 5 4 3 4 4 5 4 1 4 3 3
5 4 4 6 2 2 4 2 1 1 2 1 0 4 9 9 6 7 8 7 8 6 6 9 9 11 12 13 11 11 13 12 11 12 11 8 8 8 8 10 11 9 10 10 10 12 11 11 11 11 10 10 10 10 11 9 8 7 6 5 5 6 5 4 4 3 4 4 5 5 6 6 5 5 5 5 5 5 5 5 6 6 4 3 4 4 4 5 4 4 5 4 2 4 2 4 2
4 5 4 5 4 4 5 2 1 0 1 2 1 4 7 5 8 7 6 8 7 6 4 6 8 9 9 5 5 9 12 11 12 11 7 6 7 10 13 12 9 10 12 12 12 12 10 13 12 12 11 11 10 10 10 7 5 4 3 2 2 1 1 2 3 5 5 4 4 5 6 4 4 6 6 6 5 6 6 6 4 4 4 4 3 6 6 5 5 5 4 3 6 6 5 1 1
5 5 8 8 5 6 2 1 3 0 2 1 1 2 6 4 6 10 10 1 5 4 5 10 11 11 7 10 14 11 8 9 11 12 11 9 9 7 7 8 10 11 12 12 11 12 11 11 11 10 9 9 10 10 10 8 8 9 7 7 7 7 8 6 9 7 4 4 5 2 3 4 4 5 5 5 5 5 5 5 3 4 6 6 6 4 3 3 3 3 2 3 4 4 4 3 2
4 6 9 9 7 2 2 1 3 1 4 2 1 9 6 5 3 7 5 3 9 6 3 9 10 11 8 11 13 11 11 10 8 8 6 6 8 7 8 9 11 12 13 9 9 10 11 10 9 10 10 9 8 8 9 8 8 8 11 12 10 9 9 6 1 2 3 4 3 4 4 4 4 5 5 5 5 5 4 4 5 4 2 0 1 0 0 1 2 2 2 2 2 1 1 1 3
7 1 5 7 4 4 5 6 8 4 1 1 2 2 4 6 9 2 2 2 7 7 8 11 11 12 12 12 13 11 11 11 10 11 10 9 8 10 13 14 12 14 11 8 9 8 10 11 10 11 9 9 8 7 9 10 11 9 9 9 8 9 9 7 4 4 3 3 4 4 3 3 3 4 4 4 4 4 4 3 2 2 3 3 3 3 2 2 1 2 2 1 1 1 1 1 2
1 2 6 5 6 7 6 6 5 1 1 7 1 0 1 6 7 4 1 4 7 9 11 10 11 14 14 14 13 12 12 10 9 10 10 11 12 12 11 11 11 9 7 8 10 10 9 9 9 7 9 8 7 9 10 10 10 10 10 8 7 5 4 4 3 2 4 3 3 2 3 3 2 2 2 3 3 3 2 3 3 5 4 2 5 6 4 3 3 4 4 3 5 5 4 2 2
5 4 7 6 7 5 3 4 4 0 1 8 5 3 4 8 5 4 2 1 7 8 10 12 12 11 10 11 11 10 8 7 8 11 9 9 8 7 6 4 3 7 6 5 5 5 5 6 7 8 9 8 8 9 10 10 10 8 9 8 10 6 4 3 4 4 3 4 4 4 3 4 3 4 3 3 4 4 5 5 4 5 5 4 2 5 5 3 3 3 3 6 4 5 3 5 3
3 7 5 4 6 3 2 4 2 2 4 7 5 3 3 6 5 8 6 7 8 9 7 6 6 5 7 9 10 9 9 9 9 9 9 8 4 4 4 7 6 3 4 5 5 5 6 7 7 9 9 8 8 9 10 11 9 9 9 9 9 8 7 7 5 3 4 4 5 4 4 4 3 4 4 4 4 4 5 4 4 5 5 4 4 4 4 4 3 4 6 5 5 6 4 4 4
10 2 4 5 2 4 2 2 2 3 6 5 2 2 2 8 4 5 9 4 4 7 8 9 7 6 7 6 6 7 7 7 7 6 8 6 4 3 3 6 6 6 5 5 5 5 6 7 7 9 7 8 7 8 9 10 9 10 8 9 9 9 10 8 9 8 7 7 7 7 4 4 3 3 3 3 3 4 5 4 5 6 5 4 4 3 3 4 4 4 4 4 5 5 4 5 4
3 4 7 9 3 2 5 0 5 7 6 1 1 1 1 10 7 8 7 8 8 8 10 9 8 7 7 6 6 6 5 4 5 6 5 4 6 6 6 6 5 6 8 8 8 6 5 5 7 9 9 7 8 7 9 9 9 9 9 9 8 8 9 9 9 8 7 8 7 7 6 5 4 4 3 5 3 3 3 6 5 6 5 4 4 4 4 4 4 4 5 5 5 5 4 4 4
5 8 8 9 5 6 7 3 1 5 6 3 1 0 4 3 7 13 16 18 15 8 10 11 9 10 9 8 7 6 4 4 4 4 4 5 5 5 4 5 5 5 4 4 4 5 5 6 6 8 9 7 6 7 8 9 9 9 8 9 9 9 9 9 8 8 8 7 8 9 8 7 6 6 5 4 4 4 4 5 6 6 4 4 4 4 4 4 4 4 5 6 4 4 4 4 3
7 1 8 6 5 4 5 3 7 7 8 2 4 1 6 5 5 2 10 10 7 4 6 6 7 8 8 7 7 6 5 4 4 4 5 5 4 4 4 3 3 2 2 2 1 2 2 4 5 7 7 6 7 8 7 9 8 8 7 8 8 8 9 8 7 7 8 8 6 7 5 5 6 5 6 5 4 6 5 5 5 6 5 4 4 5 4 5 5 6 5 5 5 4 5 5 4
5 3 4 6 10 6 4 5 3 2 1 1 1 6 4 5 3 7 6 7 9 7 8 5 9 5 5 6 6 6 4 4 4 4 4 4 4 3 3 3 3 2 2 1 1 2 3 4 4 4 6 6 6 7 7 8 8 7 8 9 8 8 7 6 6 5 6 6 7 8 7 5 6 6 4 6 4 5 6 6 6 6 5 5 4 5 5 5 5 6 5 5 5 3 5 5 4
4 4 9 4 2 8 6 3 1 2 4 7 2 6 7 7 9 11 4 4 8 5 6 5 7 5 3 7 6 6 6 5 4 4 4 4 3 3 3 3 2 2 2 3 4 3 4 4 4 4 3 3 5 6 7 7 7 8 8 7 7 7 9 9 9 8 8 6 7 7 7 6 6 5 6 5 6 5 5 6 6 5 5 4 5 5 5 5 5 5 5 6 5 3 5 4 3
7 4 7 2 1 4 5 6 1 2 5 7 3 7 5 1 7 4 7 7 11 7 6 6 5 4 5 8 6 7 7 6 4 4 3 3 2 2 1 2 3 3 4 3 5 4 4 4 5 5 5 6 5 6 6 7 8 8 7 7 7 9 9 8 9 10 8 8 7 7 7 7 6 5 6 5 6 6 6 6 6 5 4 5 5 5 5 5 6 5 4 4 3 3 5 3 3
5 7 6 7 4 7 1 3 3 3 4 4 2 2 4 6 7 5 5 5 11 12 5 3 7 6 9 8 7 6 5 4 5 5 4 3 2 2 2 3 2 2 2 3 2 3 3 4 4 6 7 7 7 6 6 5 6 7 7 8 9 8 7 8 8 9 8 9 9 7 7 7 6 6 7 7 7 6 6 5 6 5 5 6 5 6 5 5 5 6 4 5 4 5 5 4 2
1 2 3 1 3 3 4 6 3 4 4 1 8 1 7 7 7 8 10 10 10 8 5 7 9 9 8 7 6 7 7 7 5 5 4 3 3 2 2 2 2 1 1 2 3 2 3 4 5 5 4 5 5 7 7 8 6 8 7 7 6 8 9 9 9 10 8 9 8 8 8 7 7 5 6 7 6 7 6 6 5 6 6 6 6 5 5 6 6 5 5 4 2 3 4 4 3
1 2 4 1 0 2 4 2 5 5 5 4 3 5 5 8 8 9 13 14 11 8 8 5 6 8 8 8 7 6 6 6 6 5 4 4 4 3 2 1 1 0 0 1 3 5 5 4 5 7 9 8 7 7 7 7 7 7 10 10 9 8 9 8 9 8 10 9 8 7 6 7 6 6 7 7 7 6 6 6 6 6 6 6 6 6 4 5 5 5 3 4 3 4 4 3 3
7 8 7 8 6 4 7 9 3 2 3 5 3 9 6 9 4 11 14 13 10 4 5 6 7 7 6 7 6 5 5 5 4 4 4 4 4 3 1 0 0 1 1 3 2 3 3 4 5 6 7 7 8 7 7 7 6 8 9 9 8 7 8 8 9 8 9 8 7 7 7 7 8 5 6 7 7 6 6 7 7 7 6 6 5 6 4 4 5 4 4 3 5 5 4 3 3
Wind_Direction
278 290 136 138 81 107 71 0 90 313 55 257 2 21 194 72 209 68 155 339 58 317 332 49 59 45 207 198 153 138 120 141 193 137 211 232 237 127 119 119 118 108 106 111 102 88 91 117 130 113 108 105 120 121 122 122 124 121 118 117 115 105 103 101 100 98 95 95 94 89 85 87 86 91 86 81 84 84 86 87 85 83 81 83 86 87 89 86 90 90 83 77 72 78 85 87 87
258 60 69 113 83 60 290 115 99 355 41 40 225 106 251 299 78 204 178 184 196 128 160 90 80 78 68 90 125 133 38 26 192 138 70 106 97 80 123 125 124 117 112 107 96 93 97 113 138 119 110 116 122 123 121 120 122 120 120 119 112 107 105 104 104 99 100 101 96 93 87 89 92 88 88 84 86 91 89 85 86 85 85 87 89 89 91 97 97 93 86 79 77 80 85 87 88
293 64 71 38 32 73 77 37 316 70 70 318 277 215 345 122 182 210 225 155 143 148 151 103 108 86 61 49 32 38 229 22 81 71 102 135 125 136 118 113 111 110 113 111 109 106 121 145 135 125 118 120 120 119 118 118 122 124 119 115 111 107 102 97 97 104 105 96 94 94 94 96 91 85 89 92 90 88 89 91 92 93 92 88 86 88 92 94 93 88 83 81 79 83 89 89 87
111 44 147 87 263 32 61 24 90 122 237 211 293 275 173 176 217 204 216 155 153 146 188 43 51 280 114 64 107 77 50 54 29 132 130 164 136 129 124 117 112 106 104 111 117 125 138 157 142 125 118 120 117 118 117 117 121 118 117 112 106 104 101 98 101 103 107 109 104 102 104 98 94 94 98 97 96 96 97 92 87 85 86 88 92 97 97 94 93 88 83 78 78 82 86 87 86
57 0 86 93 100 6 89 98 136 88 272 198 183 275 253 197 179 189 194 260 262 252 243 145 76 338 86 120 82 99 221 89 95 34 92 29 109 127 125 121 113 110 111 111 107 114 128 128 109 121 120 117 113 114 121 124 123 117 109 106 106 102 99 100 109 115 102 96 97 101 93 92 96 98 92 92 91 86 85 93 93 92 92 91 90 90 93 99 95 87 83 78 77 79 83 86 88
54 42 355 84 32 170 53 23 342 217 221 151 125 232 212 203 165 182 180 268 269 22 214 71 148 178 24 358 162 104 182 101 162 74 122 150 127 130 130 120 113 110 110 96 87 93 103 99 116 129 122 116 117 114 117 120 113 110 106 107 106 102 100 103 115 108 105 103 107 102 100 99 98 92 90 90 93 93 93 88 91 90 86 87 89 88 91 101 99 90 85 80 77 76 79 82 86
24 42 353 30 32 54 170 141 236 212 278 165 197 193 182 201 211 132 151 113 214 57 343 117 120 94 75 323 27 99 240 202 108 169 135 139 125 128 128 120 114 113 108 98 94 92 97 87 74 78 90 107 118 120 118 120 111 110 109 109 107 103 101 103 108 110 109 114 112 100 101 104 99 96 95 98 96 94 93 93 92 92 91 90 88 91 97 103 105 92 85 80 77 73 76 80 81
64 122 324 96 229 27 60 204 252 161 272 171 234 161 192 192 166 150 174 108 204 82 16 96 36 97 183 21 156 278 4 116 136 114 116 123 129 130 127 127 123 120 108 94 102 114 92 72 79 84 86 101 116 127 122 121 118 113 111 111 109 106 105 113 111 100 107 112 108 107 106 106 102 98 96 90 92 94 96 95 98 98 97 95 95 95 97 106 108 95 84 80 74 74 77 80 82
6 85 283 78 97 43 48 280 276 231 282 285 278 307 174 170 159 139 119 232 98 100 144 124 58 85 237 34 55 277 349 66 110 117 121 127 133 135 129 131 133 130 112 111 102 83 81 87 83 85 78 84 118 129 130 129 129 121 119 112 109 108 110 113 111 112 113 109 104 105 105 105 104 104 106 110 104 99 97 93 91 91 91 89 90 90 97 106 109 100 86 76 73 74 75 78 82
30 55 289 129 130 266 4 301 40 212 239 243 185 188 170 183 184 61 148 101 151 121 14 129 102 110 147 97 0 23 83 134 112 108 126 134 135 126 127 129 131 134 128 123 116 111 112 100 97 94 81 81 111 118 125 125 125 119 116 110 113 111 114 119 121 122 115 112 112 113 114 115 110 105 103 103 103 103 100 97 95 95 91 91 89 90 97 104 104 100 89 76 73 73 75 76 76
12 11 148 79 29 134 206 267 269 312 328 328 297 284 220 118 124 124 318 128 14 139 180 170 49 110 89 336 224 251 261 165 125 137 144 138 134 130 126 126 134 139 140 133 131 122 117 122 120 105 95 88 99 124 128 128 123 117 111 109 113 117 123 131 133 122 119 118 119 121 119 115 110 109 107 105 104 101 100 99 98 97 95 94 94 94 94 99 104 99 86 74 72 70 71 74 74
14 23 13 105 188 163 232 186 275 282 296 15 208 194 191 145 105 115 140 125 182 119 181 150 172 142 62 358 306 356 127 190 145 141 142 137 130 129 126 124 133 138 137 135 127 121 126 130 120 117 105 89 88 86 100 113 121 114 113 115 118 121 128 135 110 108 124 126 101 93 96 108 118 109 105 103 101 104 105 101 99 97 97 96 97 96 96 98 102 99 79 68 68 69 68 70 72
110 99 79 96 215 131 212 124 259 315 347 266 178 221 123 117 189 174 156 93 121 104 282 240 136 79 101 181 255 277 169 205 163 143 143 141 136 126 119 124 131 136 139 136 131 130 133 133 130 117 111 96 87 88 85 88 111 121 119 121 118 120 127 133 116 111 115 115 98 93 90 88 95 105 107 103 93 95 94 91 102 110 108 106 103 104 103 96 93 84 67 65 65 66 66 65 66
116 185 119 172 53 126 142 207 333 157 264 243 255 115 158 140 252 179 129 116 197 143 268 171 128 127 82 65 216 183 205 194 166 149 141 136 133 131 133 133 135 145 145 141 142 138 139 141 123 115 106 91 89 86 88 95 99 103 108 113 119 125 128 102 103 108 105 96 94 86 88 92 95 98 98 98 97 88 75 71 81 99 108 108 109 107 102 99 93 84 73 66 64 62 62 60 56
330 145 84 119 106 87 225 127 202 165 221 176 200 134 183 276 120 180 159 136 238 225 1 27 187 107 215 163 230 203 189 180 163 152 137 130 131 135 138 141 143 146 152 149 150 151 153 145 132 127 119 126 126 112 101 105 112 112 110 109 115 117 104 107 105 105 105 90 94 91 85 85 88 95 101 101 97 90 79 66 66 90 108 105 107 108 109 100 91 79 76 68 62 59 56 54 47
141 79 75 116 247 159 265 147 47 103 243 175 189 140 111 333 171 137 249 146 155 341 129 190 28 169 168 170 208 183 171 155 159 141 134 133 130 131 139 144 150 155 156 156 163 165 158 159 154 152 144 144 143 136 124 125 127 125 119 115 117 121 121 119 119 112 107 108 108 103 97 90 86 89 98 104 106 98 93 87 78 90 116 118 115 116 112 103 97 88 78 70 54 44 39 30 22
63 78 54 46 247 156 253 142 145 196 237 229 263 154 160 207 239 140 284 52 124 169 37 290 175 47 172 195 229 150 147 142 137 138 137 139 136 132 135 149 152 158 165 169 174 173 170 173 173 157 162 156 143 138 127 125 137 130 123 123 127 130 131 129 121 115 112 113 112 109 102 101 102 103 98 105 104 110 114 105 100 99 114 115 118 118 114 107 105 91 72 61 47 41 27 25 18
47 100 111 189 200 147 207 171 189 216 144 212 181 194 138 161 161 179 50 33 44 24 61 309 335 6 229 275 171 133 141 142 152 148 155 138 150 146 156 164 165 180 176 179 188 178 178 189 185 177 163 165 153 142 138 141 131 134 133 128 129 132 131 129 128 134 127 123 120 117 120 123 123 121 123 118 119 122 120 118 103 96 92 93 117 124 126 120 106 98 78 53 42 42 29 20 10
100 136 108 220 190 239 158 199 192 138 224 176 182 185 169 187 139 203 116 244 162 103 330 355 348 354 40 79 127 125 146 150 158 162 160 160 165 166 162 164 183 176 186 184 188 189 185 181 188 190 183 168 158 147 146 146 157 152 154 143 140 144 149 140 146 139 137 135 132 128 128 128 135 139 139 141 138 139 138 131 125 119 118 111 123 129 133 132 115 104 45 24 31 35 26 14 0
240 131 252 252 215 246 206 179 205 192 131 157 174 200 169 190 140 141 161 177 253 179 170 332 173 226 140 145 137 140 153 159 164 165 171 166 170 169 167 172 183 191 188 188 182 185 185 187 191 193 188 173 164 161 147 156 160 176 164 154 150 156 157 158 157 156 149 150 148 142 135 130 119 130 147 139 130 126 129 127 134 132 128 119 105 89 97 81 48 34 20 21 16 5 3 355 354
282 101 186 232 206 309 275 186 229 206 160 182 162 108 148 205 163 153 146 125 245 261 235 169 191 175 168 163 156 150 158 164 168 171 173 178 182 183 184 183 185 185 185 171 178 190 193 190 185 191 188 178 170 166 158 169 169 169 175 166 162 168 175 178 176 170 169 168 170 161 151 138 124 108 113 121 133 132 119 115 114 110 105 99 84 90 13 32 32 19 359 4 1 349 351 343 356
1 221 216 214 188 246 262 217 218 170 145 126 150 146 202 123 80 139 153 171 206 210 216 231 179 162 155 165 171 159 166 171 174 174 180 181 182 186 186 196 190 174 160 183 193 188 191 193 191 182 177 180 181 175 179 174 170 178 180 183 172 193 191 194 187 187 185 187 181 176 132 127 138 128 125 146 154 151 148 160 164 134 111 145 94 117 2 7 12 358 8 337 318 348 334 326 333
322 311 280 248 229 256 306 312 234 152 130 146 173 203 98 156 181 185 174 189 230 229 219 191 180 168 170 163 160 168 172 178 181 183 181 185 188 188 186 186 183 183 183 197 185 191 190 195 194 184 182 179 183 178 175 176 191 186 180 178 176 198 196 197 203 199 198 190 185 171 157 155 159 164 173 179 197 178 178 183 191 180 186 183 172 157 237 324 358 347 340 321 334 334 320 317 318
160 250 313 309 175 226 352 315 314 165 160 187 172 93 150 152 173 188 191 236 240 303 249 166 164 132 138 152 176 176 180 181 187 187 185 187 186 188 186 187 193 188 192 192 188 184 188 197 195 190 188 182 184 182 189 189 191 187 189 180 191 190 186 202 205 202 197 195 188 186 182 174 173 180 196 190 212 190 197 202 187 199 217 220 200 185 202 283 283 309 311 316 320 312 301 305 305
189 260 287 279 274 245 304 295 300 116 177 18 114 150 203 179 177 107 226 228 283 338 109 128 143 148 160 170 180 188 186 186 185 189 188 191 192 189 195 195 184 179 195 196 193 191 192 193 191 198 194 189 186 178 186 192 191 190 189 190 196 191 196 204 203 197 199 200 191 192 176 177 186 187 190 205 176 207 209 198 196 210 216 232 186 220 189 239 265 267 282 287 309 295 284 287 292
63 266 314 289 288 304 314 347 28 118 90 107 117 197 9 233 61 203 220 221 233 135 123 141 147 156 171 184 188 188 192 192 186 185 191 183 181 183 200 194 186 187 197 194 190 198 194 190 192 199 196 191 188 181 188 188 193 194 197 198 198 188 206 207 199 203 207 192 200 192 197 184 186 184 195 196 184 212 209 207 208 217 216 222 194 219 219 208 245 265 276 276 279 281 291 274 284
7 309 290 282 273 315 7 90 332 86 149 177 167 202 172 328 50 266 233 193 123 116 140 159 157 172 180 182 191 199 196 199 195 186 169 186 194 194 198 195 195 197 188 193 194 197 194 191 200 197 199 193 184 192 188 194 189 199 198 196 191 199 204 203 208 210 206 204 201 191 194 198 188 185 188 190 202 209 207 200 217 218 231 230 207 234 203 211 225 232 235 243 249 263 269 295 319
311 291 305 294 304 281 281 48 317 1 259 133 133 122 278 310 57 228 219 154 146 138 155 170 184 179 183 186 191 199 207 212 202 178 191 189 198 196 198 196 197 198 193 197 193 187 187 196 199 198 196 191 191 196 191 192 195 201 196 191 199 201 198 202 208 213 213 211 202 193 193 199 189 192 188 187 195 203 211 211 221 202 232 228 208 224 224 217 220 240 251 254 262 278 287 299 321
280 307 323 298 343 325 259 192 210 306 232 142 155 67 314 268 235 239 251 136 133 149 166 180 191 192 188 189 192 198 211 206 202 208 208 204 198 193 200 196 191 199 202 194 191 184 190 192 196 199 194 191 196 197 193 197 195 195 193 200 200 194 199 203 208 213 218 216 206 198 195 192 193 190 198 194 193 197 202 210 224 229 238 230 216 222 225 218 234 255 263 234 273 292 306 294 319
289 250 176 334 2 320 272 87 55 125 272 148 141 215 248 233 237 257 164 135 113 128 177 189 198 195 197 191 195 209 213 205 216 219 216 212 205 202 204 199 197 198 194 196 190 197 190 191 193 193 195 194 199 200 196 195 195 194 195 200 199 193 198 201 214 215 215 219 208 206 199 194 193 197 184 205 195 197 199 201 214 241 244 243 231 200 207 203 218 228 251 264 271 288 279 288 316
333 283 134 181 125 259 297 166 179 156 164 164 97 214 268 253 252 229 163 174 152 176 195 196 200 205 203 201 201 208 215 212 216 219 221 220 216 213 212 206 202 202 194 197 201 197 188 191 187 196 191 198 199 203 198 201 195 190 192 197 201 200 200 204 212 213 214 217 207 213 205 197 198 191 183 175 187 185 193 209 212 232 232 213 226 223 216 201 217 238 243 248 276 272 259 268 275
333 330 288 328 146 278 297 312 160 176 281 86 123 253 239 258 264 243 188 186 187 187 195 202 204 207 208 207 210 213 218 217 233 238 234 231 223 220 213 213 205 204 204 204 204 194 197 193 188 194 189 197 199 202 201 199 195 193 192 195 197 200 203 207 208 208 208 205 203 210 207 201 196 193 183 172 165 175 177 193 217 222 219 185 208 217 213 233 213 228 222 198 258 261 251 264 235
348 186 274 273 117 239 351 233 284 352 107 351 175 219 312 283 276 288 224 177 202 203 205 206 211 213 210 210 211 216 222 232 235 233 230 226 228 224 221 218 211 210 208 205 203 201 203 199 191 194 193 196 197 201 201 199 191 191 192 193 196 195 201 208 208 201 198 195 199 203 200 197 197 188 183 181 174 176 174 185 209 207 186 192 200 208 194 211 235 250 245 243 269 282 279 269 266
263 44 210 207 168 208 244 298 286 233 100 209 254 230 233 234 305 322 174 196 185 216 220 216 215 213 214 214 215 217 218 223 226 223 224 218 222 221 221 218 217 213 214 212 207 204 207 202 201 200 197 195 196 196 197 196 196 192 193 194 192 196 203 203 203 192 199 196 190 200 190 190 200 185 174 182 186 188 193 189 203 202 173 183 212 196 243 251 197 200 257 252 216 230 255 257 267
178 201 246 284 239 211 223 171 248 138 6 183 228 249 263 275 281 306 270 179 203 222 217 220 220 220 223 220 220 224 224 226 233 224 219 215 216 217 218 217 215 214 213 212 211 212 210 210 207 207 202 198 198 194 193 194 192 197 196 194 198 206 207 206 198 201 205 199 197 201 187 187 200 192 170 170 194 203 223 234 226 217 167 178 188 203 220 212 215 219 224 263 237 224 239 256 273
197 180 179 162 172 210 200 240 277 176 178 224 205 220 241 255 267 272 8 145 205 241 282 272 245 244 242 230 230 229 229 236 237 228 222 217 215 213 214 213 213 213 212 208 211 210 212 213 209 209 208 199 193 191 182 189 186 192 199 210 221 216 210 205 207 206 195 200 201 200 203 201 195 196 180 183 194 214 224 227 227 211 189 193 209 219 242 224 227 232 244 237 261 276 243 257 257
202 123 137 229 225 281 279 261 264 287 153 228 217 231 238 249 251 265 289 89 224 259 250 244 243 233 232 235 231 230 231 234 235 215 214 211 212 213 213 209 213 210 211 206 207 211 209 208 201 212 206 193 188 189 191 189 195 200 209 208 211 202 208 208 212 205 202 200 197 202 205 209 206 212 223 209 216 216 216 217 216 236 219 202 217 226 227 248 248 233 250 208 243 283 293 223 256
243 249 278 284 151 250 243 223 353 319 171 276 216 240 260 257 267 264 258 144 233 225 236 242 240 231 229 228 236 233 235 271 286 243 220 207 208 210 208 209 205 206 213 203 209 211 208 208 207 210 195 195 198 196 192 194 198 199 196 208 203 199 201 208 216 206 206 200 200 207 213 209 203 204 204 200 210 209 218 220 218 232 228 231 226 236 236 233 241 241 218 270 198 221 258 240 214
235 224 243 253 257 235 284 255 286 312 126 257 46 227 256 257 256 256 187 214 240 228 215 230 228 238 236 233 237 244 258 253 244 246 234 216 211 209 202 207 210 210 205 204 210 207 208 207 211 207 200 196 202 198 192 202 200 199 193 194 191 206 224 214 210 194 187 198 203 208 213 210 202 207 206 199 201 201 206 210 225 233 241 207 212 240 248 264 244 240 205 217 259 206 239 249 200
232 245 231 228 226 141 271 281 162 12 135 276 179 221 273 277 280 260 233 215 241 234 217 232 212 227 232 228 221 227 235 240 238 233 227 217 211 209 206 210 211 204 207 209 206 206 207 210 208 205 203 201 200 199 200 203 197 193 198 185 194 182 188 203 205 185 186 199 213 207 215 208 199 209 213 207 202 200 198 209 221 225 238 214 221 245 246 238 235 241 228 238 218 282 237 268 190
231 203 207 232 199 235 180 249 61 316 15 91 72 338 291 255 270 285 258 230 253 266 241 259 257 239 243 277 282 231 235 231 238 243 238 220 214 214 207 209 200 204 208 207 203 204 204 208 208 203 202 201 202 197 198 186 160 158 147 83 87 129 19 137 190 228 205 199 204 208 217 214 209 205 211 210 203 209 212 222 221 219 220 215 197 228 235 239 238 241 210 184 201 227 270 301 328
247 227 202 217 220 221 243 319 144 40 285 310 175 306 280 283 257 243 255 357 257 252 219 244 244 245 236 242 242 242 238 232 229 234 228 219 221 228 223 210 204 211 213 210 204 203 203 207 203 204 205 202 202 198 190 175 181 178 170 182 193 202 213 203 216 217 193 208 217 193 208 204 213 220 215 212 210 219 222 219 219 222 221 217 228 230 215 264 277 271 219 213 227 237 243 290 288
200 254 194 224 228 214 128 152 112 192 199 281 35 200 268 324 290 244 269 324 266 281 246 249 248 250 238 235 240 236 230 237 239 249 244 222 224 220 226 219 213 211 217 206 204 205 206 204 198 198 202 204 201 194 181 179 187 191 192 197 202 206 215 228 155 142 176 212 200 202 211 205 211 213 219 212 217 217 218 220 227 241 291 341 83 69 352 262 235 217 174 183 207 148 146 244 287
232 247 160 201 180 178 202 177 190 221 268 307 47 138 211 281 274 266 274 316 284 293 266 253 248 244 241 239 240 236 232 227 226 229 229 225 222 210 214 211 209 214 209 194 200 202 203 203 195 196 198 198 195 185 181 187 192 195 197 204 205 207 211 205 167 191 192 175 183 209 190 191 200 212 213 212 209 214 220 217 162 139 120 127 137 110 81 29 59 49 64 127 111 95 132 140 314
218 221 150 162 191 207 175 174 191 233 177 261 310 215 234 254 266 309 354 273 276 262 260 257 242 239 238 239 241 237 234 229 220 229 228 221 219 217 216 213 218 218 201 197 200 200 200 200 198 192 195 192 192 182 183 192 197 194 196 196 203 212 188 179 165 143 151 156 143 139 141 138 120 129 163 168 164 156 147 128 120 120 104 72 90 85 76 70 76 83 82 90 77 64 60 71 61
263 120 82 83 76 65 129 157 141 323 146 248 230 181 215 277 272 321 338 238 259 259 250 243 238 239 243 249 250 244 245 237 224 226 230 231 229 230 226 247 246 219 211 206 209 200 198 190 194 190 199 192 188 185 186 192 194 187 193 195 199 188 151 129 150 154 151 154 146 150 138 133 132 107 87 96 107 109 113 119 117 101 101 95 83 104 100 96 88 93 87 70 71 85 64 68 68
120 126 85 50 49 73 35 70 101 65 253 250 233 271 171 282 245 208 185 219 198 234 265 271 271 281 265 251 250 243 231 229 229 229 232 235 243 232 212 209 217 216 203 188 195 192 191 193 193 197 200 191 186 188 185 191 189 190 195 192 191 178 172 159 148 144 135 140 152 160 150 132 117 110 103 75 77 101 97 94 107 104 102 110 105 98 114 121 124 88 75 86 81 77 72 81 71
141 150 135 98 26 25 34 333 44 192 260 263 256 204 151 205 291 268 240 276 237 208 224 248 274 271 265 264 260 256 246 236 236 234 243 241 233 212 186 212 207 204 186 198 201 194 195 197 193 202 202 194 189 189 187 190 187 192 193 185 186 181 172 173 177 177 175 170 165 158 145 124 110 100 94 91 71 82 99 94 92 95 94 97 95 116 124 103 90 109 123 93 79 79 79 76 73
139 127 139 163 230 73 236 27 231 217 210 246 356 156 330 246 233 262 280 261 268 224 224 236 247 272 278 279 278 268 252 256 241 233 224 204 202 194 198 213 203 200 198 199 200 193 197 197 195 199 208 194 194 187 189 188 187 190 186 183 185 176 179 180 180 175 175 167 162 149 153 146 143 113 112 110 105 103 116 107 94 91 88 89 115 92 85 97 94 83 86 88 84 81 83 84 80
170 171 165 163 161 174 208 237 340 332 284 273 289 129 271 253 281 245 250 258 246 234 233 240 244 253 264 276 306 302 270 230 223 215 210 203 201 202 202 195 199 208 217 214 210 199 197 197 199 201 212 191 190 187 190 187 192 187 183 181 180 174 182 180 179 172 176 169 165 163 165 161 158 154 143 131 138 118 91 99 99 92 90 89 89 90 82 82 83 86 84 83 78 75 77 83 84
212 149 168 178 140 161 196 179 204 219 212 291 275 90 235 130 243 247 245 261 303 244 261 259 258 257 265 281 285 285 282 258 226 216 210 214 223 217 218 219 230 237 248 251 241 227 196 208 199 206 210 199 188 194 187 190 187 183 183 182 176 177 175 176 176 172 165 159 162 149 146 144 138 147 133 133 126 112 107 97 97 97 93 91 89 88 83 81 81 79 76 81 71 67 74 74 60
210 186 52 152 212 140 177 202 151 194 230 270 233 210 186 185 249 283 248 268 285 268 260 275 275 268 262 273 263 257 258 255 242 235 248 253 240 236 242 242 232 232 238 248 234 203 187 211 203 213 212 197 193 186 190 185 183 177 178 176 178 171 162 150 136 138 148 151 151 146 142 136 131 127 121 120 106 111 111 102 91 90 90 88 85 92 92 86 85 88 76 72 64 24 75 70 56
201 102 205 223 86 105 88 59 81 100 44 258 165 316 283 298 315 282 312 323 274 268 266 267 269 285 306 259 253 248 248 249 247 234 237 250 263 252 225 223 236 235 249 227 222 199 195 193 183 190 186 174 187 188 181 178 170 170 178 171 160 157 155 157 153 146 138 128 127 128 128 128 123 121 122 116 113 100 106 109 101 97 91 93 89 85 88 91 87 81 81 64 64 44 61 63 40
100 184 226 182 132 103 147 205 359 107 207 257 82 213 284 31 262 307 333 294 272 267 255 260 274 287 272 250 242 233 234 238 252 256 253 256 252 251 245 225 211 204 207 211 216 205 198 186 175 169 161 172 182 171 167 167 163 165 160 158 159 159 153 145 142 139 135 126 120 118 121 123 128 128 120 120 114 105 96 97 105 101 97 88 91 84 86 88 91 78 85 77 74 67 72 42 37
169 194 184 148 214 229 285 123 209 169 227 266 303 273 269 188 231 331 301 248 260 265 263 261 271 259 247 253 252 249 257 275 263 254 259 258 239 227 213 209 225 225 224 222 206 183 183 187 178 173 180 181 171 166 159 156 157 151 152 149 144 134 130 129 128 129 132 129 131 130 124 125 121 122 120 119 105 104 104 101 108 110 100 95 85 84 88 84 89 92 66 64 28 42 68 52 1
74 49 170 313 120 208 133 200 161 124 252 81 286 41 238 205 216 212 256 261 246 260 292 244 238 244 252 248 242 234 230 230 234 236 236 236 247 245 234 225 222 227 217 198 164 154 172 177 167 170 162 158 154 153 151 145 141 135 127 119 117 127 132 133 137 136 131 129 133 130 129 127 132 125 114 111 116 120 124 122 124 115 100 91 85 76 76 79 74 70 68 72 40 83 80 62 16
144 131 205 243 5 248 109 39 138 185 186 189 223 291 270 249 214 205 227 241 246 223 248 257 259 258 246 243 238 237 232 228 225 218 214 217 225 232 243 259 283 316 317 166 166 173 175 171 171 169 161 162 158 153 143 138 134 132 132 133 131 130 127 127 124 124 122 125 126 128 127 131 120 117 121 121 124 131 135 128 112 97 96 93 88 76 51 84 87 92 89 117 114 82 72 41 36
176 170 200 180 125 133 174 237 45 102 149 228 142 254 265 269 209 203 222 239 245 226 210 255 262 252 251 254 245 230 243 243 231 220 207 209 218 228 243 341 20 111 154 178 189 157 171 179 171 168 157 159 149 146 139 134 131 131 129 128 125 123 127 125 122 121 119 125 128 129 134 128 121 131 129 130 134 137 122 109 102 99 95 93 88 85 89 90 90 84 75 70 65 70 62 46 46